This is the latest recevied weather packets stored in our database for station/object WE0DX-1. If no packets are shown the sender has not sent any weather packets the latest 10 day(s).
| Time | Temp. | Humidity | Pressure | Rain* | Wind** | Luminosity | Snow |
|---|---|---|---|---|---|---|---|
| 1777924286 | 27.78° C | 39% | 1001.7 hPa | 0 mm | - | 648 W/m² | - |
| 1777923983 | 27.78° C | 40% | 1001.8 hPa | 0 mm | - | 641 W/m² | - |
| 1777923679 | 27.78° C | 42% | 1001.8 hPa | 0 mm | - | 650 W/m² | - |
| 1777923375 | 27.22° C | 43% | 1001.6 hPa | 0 mm | - | 638 W/m² | - |
| 1777923074 | 27.22° C | 43% | 1001.5 hPa | 0 mm | - | 632 W/m² | - |
| 1777922772 | 27.22° C | 41% | 1001.8 hPa | 0 mm | - | 611 W/m² | - |
| 1777922469 | 27.22° C | 43% | 1001.8 hPa | 0 mm | - | 617 W/m² | - |
| 1777922168 | 27.22° C | 42% | 1001.7 hPa | 0 mm | - | 658 W/m² | - |
| 1777921863 | 26.67° C | 42% | 1001.5 hPa | 0 mm | - | 563 W/m² | - |
| 1777921560 | 26.67° C | 40% | 1001.6 hPa | 0 mm | - | 677 W/m² | - |
| 1777921256 | 27.22° C | 43% | 1001.6 hPa | 0 mm | - | 517 W/m² | - |
| 1777920953 | 26.67° C | 44% | 1001.9 hPa | 0 mm | - | 676 W/m² | - |
| 1777920650 | 26.67° C | 45% | 1001.8 hPa | 0 mm | - | 560 W/m² | - |
| 1777920345 | 26.11° C | 44% | 1001.9 hPa | 0 mm | - | 679 W/m² | - |
| 1777920040 | 27.22° C | 43% | 1001.7 hPa | 0 mm | - | 722 W/m² | - |
| 1777919738 | 26.67° C | 43% | 1001.8 hPa | 0 mm | - | 735 W/m² | - |
| 1777919436 | 26.67° C | 44% | 1002 hPa | 0 mm | - | 731 W/m² | - |
| 1777919132 | 26.11° C | 45% | 1002 hPa | 0 mm | - | 730 W/m² | - |
| 1777918830 | 26.11° C | 46% | 1001.8 hPa | 0 mm | - | 745 W/m² | - |
| 1777918527 | 26.11° C | 47% | 1002.3 hPa | 0 mm | - | 748 W/m² | - |
| 1777918226 | 26.11° C | 45% | 1001.9 hPa | 0 mm | - | 742 W/m² | - |
| 1777917924 | 26.11° C | 45% | 1002.2 hPa | 0 mm | - | 741 W/m² | - |
| 1777917623 | 26.11° C | 45% | 1002.2 hPa | 0 mm | - | 745 W/m² | - |
| 1777917319 | 25.56° C | 46% | 1002.4 hPa | 0 mm | - | 759 W/m² | - |
| 1777917016 | 25.56° C | 46% | 1002.5 hPa | 0 mm | - | 766 W/m² | - |
* Rain latest hour (hover to see other rain measurements)
** Current wind speed in m/s (hover to see current wind gust speed)